Tracking 28790 objects as of 19-Apr-2024
HD Live streaming from Space Station
objects crossing your sky now

FIRST-MOVE

Track FIRST-MOVE now!
10-day predictions
FIRST-MOVE is classified as:


NORAD ID: 39439
Int'l Code: 2013-066Z
Perigee: 547.9 km
Apogee: 614.1 km
Inclination: 97.7 °
Period: 96.1 minutes
Semi major axis: 6951 km
RCS: Unknown
Launch date: November 21, 2013
Source: Germany (GER)
Launch site: Orenburg, Russia (OREN)

Uplink (MHz): 435.520
Downlink (MHz): 145.970
Beacon (MHz): 145.970
Mode: 1200bps BPSK CW
Call sign: MOVE1
Status: Inactive

Your satellite tracking list
Your tracking list is empty




NASA's NSSDC Master Catalog

Two Line Element Set (TLE):
1 39439U 13066Z   24110.13617617  .00028588  00000-0  23780-2 0  9997
2 39439  97.7189  74.2288 0047639 337.3863  22.5259 14.97749051563123
Source of the keplerian elements: Caltech